Time,TemperatureF,DewpointF,PressureIn,WindDirection,WindDirectionDegrees,WindSpeedMPH,WindSpeedGustMPH,Humidity,HourlyPrecipIn,Conditions,Clouds,dailyrainin,SoftwareType,DateUTC
2013-07-07 00:01:00,79.9,73.9,30.15,WNW,298,1.0,0.0,82,0.00,,,0.00,meteohub,2013-07-07 04:01:00,
2013-07-07 00:02:00,79.7,73.8,30.15,WNW,298,0.0,0.0,82,0.00,,,0.00,meteohub,2013-07-07 04:02:00,
2013-07-07 00:06:00,79.7,73.8,30.15,WNW,297,0.0,1.0,82,0.00,,,0.00,meteohub,2013-07-07 04:06:00,
2013-07-07 00:07:00,79.7,73.8,30.15,WNW,298,0.0,1.0,82,0.00,,,0.00,meteohub,2013-07-07 04:07:00,
2013-07-07 00:12:00,79.5,73.6,30.15,WNW,300,0.0,1.0,82,0.00,,,0.00,meteohub,2013-07-07 04:12:00,
2013-07-07 00:17:00,79.5,73.6,30.15,NW,304,0.0,1.0,82,0.00,,,0.00,meteohub,2013-07-07 04:17:00,
2013-07-07 00:22:00,79.3,73.8,30.15,WSW,253,0.0,1.0,83,0.00,,,0.00,meteohub,2013-07-07 04:22:00,
2013-07-07 00:27:00,79.3,73.8,30.15,West,260,0.0,0.0,83,0.00,,,0.00,meteohub,2013-07-07 04:27:00,
2013-07-07 00:32:00,79.5,73.6,30.15,WSW,257,0.0,2.0,82,0.00,,,0.00,meteohub,2013-07-07 04:32:00,
2013-07-07 00:37:00,79.3,73.8,30.15,WSW,257,0.0,2.0,83,0.00,,,0.00,meteohub,2013-07-07 04:37:00,
2013-07-07 00:42:00,79.3,73.8,30.15,WSW,257,0.0,2.0,83,0.00,,,0.00,meteohub,2013-07-07 04:42:00,
2013-07-07 00:47:00,79.2,73.6,30.15,WSW,257,0.0,0.0,83,0.00,,,0.00,meteohub,2013-07-07 04:47:00,
2013-07-07 00:52:00,79.2,73.6,30.15,SW,224,1.0,0.0,83,0.00,,,0.00,meteohub,2013-07-07 04:52:00,
2013-07-07 00:57:00,79.0,73.4,30.15,SW,225,0.0,1.0,83,0.00,,,0.00,meteohub,2013-07-07 04:57:00,
2013-07-07 01:02:00,79.0,73.8,30.14,WSW,246,0.0,1.0,84,0.00,,,0.00,meteohub,2013-07-07 05:02:00,
2013-07-07 01:07:00,78.8,73.6,30.14,WSW,246,0.0,1.0,84,0.00,,,0.00,meteohub,2013-07-07 05:07:00,
2013-07-07 01:12:00,78.8,73.6,30.14,West,261,0.0,0.0,84,0.00,,,0.00,meteohub,2013-07-07 05:12:00,
2013-07-07 01:17:00,78.8,73.6,30.14,West,268,0.0,1.0,84,0.00,,,0.00,meteohub,2013-07-07 05:17:00,
2013-07-07 01:22:00,78.6,73.4,30.14,West,264,0.0,1.0,84,0.00,,,0.00,meteohub,2013-07-07 05:22:00,
2013-07-07 01:27:00,78.6,73.4,30.14,West,264,0.0,1.0,84,0.00,,,0.00,meteohub,2013-07-07 05:27:00,
2013-07-07 01:32:00,78.4,73.6,30.14,West,277,0.0,1.0,85,0.00,,,0.00,meteohub,2013-07-07 05:32:00,
2013-07-07 01:37:00,78.3,73.4,30.14,West,276,0.0,1.0,85,0.00,,,0.00,meteohub,2013-07-07 05:37:00,
2013-07-07 01:42:00,78.1,73.2,30.14,West,278,0.0,1.0,85,0.00,,,0.00,meteohub,2013-07-07 05:42:00,
2013-07-07 01:47:00,77.9,73.4,30.14,West,278,0.0,1.0,86,0.00,,,0.00,meteohub,2013-07-07 05:47:00,
2013-07-07 01:52:00,77.7,73.2,30.14,West,278,0.0,1.0,86,0.00,,,0.00,meteohub,2013-07-07 05:52:00,
2013-07-07 01:57:00,77.5,73.4,30.14,West,278,0.0,1.0,87,0.00,,,0.00,meteohub,2013-07-07 05:57:00,
2013-07-07 02:02:00,77.4,73.2,30.14,West,278,0.0,0.0,87,0.00,,,0.00,meteohub,2013-07-07 06:02:00,
2013-07-07 02:07:00,77.4,73.2,30.14,WNW,282,0.0,1.0,87,0.00,,,0.00,meteohub,2013-07-07 06:07:00,
2013-07-07 02:12:00,77.4,73.2,30.13,WNW,285,1.0,1.0,87,0.00,,,0.00,meteohub,2013-07-07 06:12:00,
2013-07-07 02:17:00,77.2,73.0,30.13,West,264,1.0,1.0,87,0.00,,,0.00,meteohub,2013-07-07 06:17:00,
2013-07-07 02:22:00,77.2,73.4,30.13,WNW,296,0.0,2.0,88,0.00,,,0.00,meteohub,2013-07-07 06:22:00,
2013-07-07 02:27:00,77.2,73.4,30.13,WNW,301,0.0,2.0,88,0.00,,,0.00,meteohub,2013-07-07 06:27:00,
2013-07-07 02:32:00,77.0,73.2,30.13,WNW,301,0.0,2.0,88,0.00,,,0.00,meteohub,2013-07-07 06:32:00,
2013-07-07 02:37:00,76.8,73.0,30.12,WNW,301,0.0,2.0,88,0.00,,,0.00,meteohub,2013-07-07 06:37:00,
2013-07-07 02:42:00,76.6,72.9,30.12,WNW,301,0.0,0.0,88,0.00,,,0.00,meteohub,2013-07-07 06:42:00,
2013-07-07 02:47:00,76.5,73.0,30.12,WNW,301,0.0,0.0,89,0.00,,,0.00,meteohub,2013-07-07 06:47:00,
2013-07-07 02:52:00,76.3,72.9,30.12,WNW,301,0.0,0.0,89,0.00,,,0.00,meteohub,2013-07-07 06:52:00,
2013-07-07 02:57:00,76.1,72.7,30.12,WNW,301,0.0,0.0,89,0.00,,,0.00,meteohub,2013-07-07 06:57:00,
2013-07-07 03:02:00,75.9,72.5,30.12,WNW,301,0.0,0.0,89,0.00,,,0.00,meteohub,2013-07-07 07:02:00,
2013-07-07 03:07:00,75.7,72.7,30.12,WNW,301,0.0,0.0,90,0.00,,,0.00,meteohub,2013-07-07 07:07:00,
2013-07-07 03:12:00,75.6,72.5,30.12,WNW,301,0.0,0.0,90,0.00,,,0.00,meteohub,2013-07-07 07:12:00,
2013-07-07 03:17:00,75.4,72.3,30.11,WNW,301,0.0,0.0,90,0.00,,,0.00,meteohub,2013-07-07 07:17:00,
2013-07-07 03:22:00,75.4,72.5,30.12,WNW,301,0.0,0.0,91,0.00,,,0.00,meteohub,2013-07-07 07:22:00,
2013-07-07 03:27:00,75.0,72.1,30.12,WNW,301,0.0,0.0,91,0.00,,,0.00,meteohub,2013-07-07 07:27:00,
2013-07-07 03:32:00,75.0,72.1,30.11,WNW,301,0.0,0.0,91,0.00,,,0.00,meteohub,2013-07-07 07:32:00,
2013-07-07 03:37:00,74.8,72.0,30.12,WNW,301,0.0,0.0,91,0.00,,,0.00,meteohub,2013-07-07 07:37:00,
2013-07-07 03:42:00,74.8,72.3,30.12,WNW,301,0.0,0.0,92,0.00,,,0.00,meteohub,2013-07-07 07:42:00,
2013-07-07 03:47:00,74.8,72.3,30.12,WNW,301,0.0,0.0,92,0.00,,,0.00,meteohub,2013-07-07 07:47:00,
2013-07-07 03:52:00,74.7,72.1,30.11,WNW,301,0.0,0.0,92,0.00,,,0.00,meteohub,2013-07-07 07:52:00,
2013-07-07 03:57:00,74.7,72.1,30.12,WNW,301,0.0,0.0,92,0.00,,,0.00,meteohub,2013-07-07 07:57:00,
2013-07-07 04:02:00,74.5,72.0,30.11,WNW,301,0.0,1.0,92,0.00,,,0.00,meteohub,2013-07-07 08:02:00,
2013-07-07 04:07:00,74.3,71.8,30.11,WNW,301,0.0,1.0,92,0.00,,,0.00,meteohub,2013-07-07 08:07:00,
2013-07-07 04:12:00,74.1,71.6,30.11,WNW,301,0.0,1.0,92,0.00,,,0.00,meteohub,2013-07-07 08:12:00,
2013-07-07 04:17:00,73.9,71.8,30.12,WNW,301,0.0,0.0,93,0.00,,,0.00,meteohub,2013-07-07 08:17:00,
2013-07-07 04:22:00,73.8,71.6,30.11,WNW,301,0.0,0.0,93,0.00,,,0.00,meteohub,2013-07-07 08:22:00,
2013-07-07 04:27:00,73.4,71.2,30.12,WNW,301,0.0,0.0,93,0.00,,,0.00,meteohub,2013-07-07 08:27:00,
2013-07-07 04:32:00,73.2,71.1,30.11,WNW,301,0.0,0.0,93,0.00,,,0.00,meteohub,2013-07-07 08:32:00,
2013-07-07 04:37:00,73.0,70.9,30.11,WNW,301,0.0,0.0,93,0.00,,,0.00,meteohub,2013-07-07 08:37:00,
2013-07-07 04:42:00,72.9,71.1,30.11,WNW,301,0.0,0.0,94,0.00,,,0.00,meteohub,2013-07-07 08:42:00,
2013-07-07 04:47:00,72.7,70.9,30.11,WNW,301,0.0,0.0,94,0.00,,,0.00,meteohub,2013-07-07 08:47:00,
2013-07-07 04:52:00,72.3,70.5,30.11,WNW,301,0.0,0.0,94,0.00,,,0.00,meteohub,2013-07-07 08:52:00,
2013-07-07 04:57:00,72.1,70.3,30.11,WNW,301,0.0,0.0,94,0.00,,,0.00,meteohub,2013-07-07 08:57:00,
2013-07-07 05:02:00,72.1,70.7,30.12,WNW,300,0.0,0.0,95,0.00,,,0.00,meteohub,2013-07-07 09:02:00,
2013-07-07 05:07:00,72.0,70.5,30.12,WNW,301,0.0,0.0,95,0.00,,,0.00,meteohub,2013-07-07 09:07:00,
2013-07-07 05:12:00,72.0,70.5,30.12,WNW,301,0.0,0.0,95,0.00,,,0.00,meteohub,2013-07-07 09:12:00,
2013-07-07 05:17:00,71.8,70.3,30.12,WNW,301,0.0,0.0,95,0.00,,,0.00,meteohub,2013-07-07 09:17:00,
2013-07-07 05:22:00,71.8,70.5,30.12,WNW,300,0.0,0.0,96,0.00,,,0.00,meteohub,2013-07-07 09:22:00,
2013-07-07 05:27:00,71.8,70.5,30.12,WNW,301,0.0,0.0,96,0.00,,,0.00,meteohub,2013-07-07 09:27:00,
2013-07-07 05:32:00,72.0,70.7,30.11,WNW,301,0.0,0.0,96,0.00,,,0.00,meteohub,2013-07-07 09:32:00,
2013-07-07 05:37:00,72.0,70.7,30.11,WNW,301,0.0,0.0,96,0.00,,,0.00,meteohub,2013-07-07 09:37:00,
2013-07-07 05:42:00,72.1,70.9,30.11,WNW,301,0.0,0.0,96,0.00,,,0.00,meteohub,2013-07-07 09:42:00,
2013-07-07 05:47:00,72.1,70.9,30.11,WNW,301,0.0,0.0,96,0.00,,,0.00,meteohub,2013-07-07 09:47:00,
2013-07-07 05:52:00,72.0,70.5,30.12,WNW,301,0.0,0.0,95,0.00,,,0.00,meteohub,2013-07-07 09:52:00,
2013-07-07 05:57:00,72.0,70.5,30.12,WNW,301,0.0,0.0,95,0.00,,,0.00,meteohub,2013-07-07 09:57:00,
2013-07-07 06:02:00,72.0,70.5,30.12,WNW,285,0.0,0.0,95,0.00,,,0.00,meteohub,2013-07-07 10:02:00,
2013-07-07 06:07:00,72.1,70.7,30.12,WNW,285,0.0,0.0,95,0.00,,,0.00,meteohub,2013-07-07 10:07:00,
2013-07-07 06:12:00,72.3,70.9,30.12,WNW,285,0.0,0.0,95,0.00,,,0.00,meteohub,2013-07-07 10:12:00,
2013-07-07 06:17:00,72.3,70.9,30.12,WNW,285,0.0,0.0,95,0.00,,,0.00,meteohub,2013-07-07 10:17:00,
2013-07-07 06:22:00,72.5,71.1,30.12,WNW,285,0.0,0.0,95,0.00,,,0.00,meteohub,2013-07-07 10:22:00,
2013-07-07 06:27:00,72.7,70.9,30.12,WNW,285,0.0,0.0,94,0.00,,,0.00,meteohub,2013-07-07 10:27:00,
2013-07-07 06:32:00,72.9,71.1,30.12,WNW,285,0.0,0.0,94,0.00,,,0.00,meteohub,2013-07-07 10:32:00,
2013-07-07 06:37:00,73.0,70.9,30.12,WNW,285,0.0,0.0,93,0.00,,,0.00,meteohub,2013-07-07 10:37:00,
2013-07-07 06:42:00,73.2,71.1,30.12,WNW,285,0.0,0.0,93,0.00,,,0.00,meteohub,2013-07-07 10:42:00,
2013-07-07 06:47:00,73.6,71.4,30.12,WNW,285,0.0,0.0,93,0.00,,,0.00,meteohub,2013-07-07 10:47:00,
2013-07-07 06:52:00,73.9,71.4,30.12,WNW,285,0.0,0.0,92,0.00,,,0.00,meteohub,2013-07-07 10:52:00,
2013-07-07 06:57:00,74.7,71.8,30.12,NW,307,0.0,0.0,91,0.00,,,0.00,meteohub,2013-07-07 10:57:00,
2013-07-07 07:03:00,75.2,71.8,30.12,West,271,0.0,1.0,89,0.00,,,0.00,meteohub,2013-07-07 11:03:00,
2013-07-07 07:08:00,75.9,72.1,30.12,West,271,0.0,1.0,88,0.00,,,0.00,meteohub,2013-07-07 11:08:00,
2013-07-07 07:13:00,76.6,72.5,30.12,WNW,294,0.0,1.0,87,0.00,,,0.00,meteohub,2013-07-07 11:13:00,
2013-07-07 07:18:00,76.8,72.0,30.12,WSW,258,0.0,2.0,85,0.00,,,0.00,meteohub,2013-07-07 11:18:00,
2013-07-07 07:23:00,77.2,72.3,30.12,WSW,255,0.0,2.0,85,0.00,,,0.00,meteohub,2013-07-07 11:23:00,
2013-07-07 07:28:00,77.2,72.3,30.12,WNW,290,0.0,1.0,85,0.00,,,0.00,meteohub,2013-07-07 11:28:00,
2013-07-07 07:33:00,77.4,72.5,30.12,West,269,0.0,2.0,85,0.00,,,0.00,meteohub,2013-07-07 11:33:00,
2013-07-07 07:38:00,77.4,72.1,30.12,WSW,238,0.0,2.0,84,0.00,,,0.00,meteohub,2013-07-07 11:38:00,
2013-07-07 07:43:00,77.4,72.1,30.12,SW,224,0.0,2.0,84,0.00,,,0.00,meteohub,2013-07-07 11:43:00,
2013-07-07 07:48:00,77.2,72.3,30.12,SW,229,0.0,0.0,85,0.00,,,0.00,meteohub,2013-07-07 11:48:00,
2013-07-07 07:53:00,77.2,72.3,30.12,West,275,0.0,0.0,85,0.00,,,0.00,meteohub,2013-07-07 11:53:00,
2013-07-07 07:58:00,77.7,72.9,30.12,NW,304,0.0,0.0,85,0.00,,,0.00,meteohub,2013-07-07 11:58:00,
2013-07-07 08:03:00,78.3,72.7,30.12,WNW,303,0.0,2.0,83,0.00,,,0.00,meteohub,2013-07-07 12:03:00,
2013-07-07 08:08:00,78.8,73.6,30.12,NW,304,0.0,2.0,84,0.00,,,0.00,meteohub,2013-07-07 12:08:00,
2013-07-07 08:13:00,79.3,73.0,30.12,WSW,252,0.0,2.0,81,0.00,,,0.00,meteohub,2013-07-07 12:13:00,
2013-07-07 08:18:00,79.7,73.4,30.12,SW,233,0.0,1.0,81,0.00,,,0.00,meteohub,2013-07-07 12:18:00,
2013-07-07 08:23:00,80.2,73.6,30.12,SW,217,0.0,1.0,80,0.00,,,0.00,meteohub,2013-07-07 12:23:00,
2013-07-07 08:29:00,80.8,73.6,30.12,WSW,255,0.0,1.0,79,0.00,,,0.00,meteohub,2013-07-07 12:29:00,
2013-07-07 08:34:00,81.1,73.6,30.12,SW,233,0.0,0.0,78,0.00,,,0.00,meteohub,2013-07-07 12:34:00,
2013-07-07 08:39:00,81.5,73.6,30.12,SSW,201,0.0,1.0,77,0.00,,,0.00,meteohub,2013-07-07 12:39:00,
2013-07-07 08:44:00,81.9,73.9,30.12,WNW,297,0.0,1.0,77,0.00,,,0.00,meteohub,2013-07-07 12:44:00,
2013-07-07 08:49:00,81.5,73.6,30.12,West,278,0.0,3.0,77,0.00,,,0.00,meteohub,2013-07-07 12:49:00,
2013-07-07 08:54:00,81.7,73.4,30.12,WSW,245,0.0,4.0,76,0.00,,,0.00,meteohub,2013-07-07 12:54:00,
2013-07-07 08:59:00,82.0,73.8,30.12,West,262,0.0,4.0,76,0.00,,,0.00,meteohub,2013-07-07 12:59:00,
2013-07-07 09:04:00,82.6,73.8,30.12,WSW,250,0.0,2.0,75,0.00,,,0.00,meteohub,2013-07-07 13:04:00,
2013-07-07 09:09:00,82.8,73.9,30.12,West,264,0.0,0.0,75,0.00,,,0.00,meteohub,2013-07-07 13:09:00,
2013-07-07 09:14:00,83.1,73.9,30.12,SW,228,0.0,2.0,74,0.00,,,0.00,meteohub,2013-07-07 13:14:00,
2013-07-07 09:19:00,83.1,73.6,30.12,SW,214,0.0,2.0,73,0.00,,,0.00,meteohub,2013-07-07 13:19:00,
2013-07-07 09:24:00,83.7,74.5,30.12,West,273,0.0,2.0,74,0.00,,,0.00,meteohub,2013-07-07 13:24:00,
2013-07-07 09:29:00,83.7,74.1,30.12,SSW,210,1.0,2.0,73,0.00,,,0.00,meteohub,2013-07-07 13:29:00,
2013-07-07 09:34:00,83.8,74.7,30.12,WSW,257,0.0,2.0,74,0.00,,,0.00,meteohub,2013-07-07 13:34:00,
2013-07-07 09:39:00,84.0,74.5,30.12,WNW,294,0.0,3.0,73,0.00,,,0.00,meteohub,2013-07-07 13:39:00,
2013-07-07 09:44:00,84.4,74.8,30.12,East,94,0.0,3.0,73,0.00,,,0.00,meteohub,2013-07-07 13:44:00,
2013-07-07 09:50:00,84.6,75.0,30.12,West,266,0.0,3.0,73,0.00,,,0.00,meteohub,2013-07-07 13:50:00,
2013-07-07 09:55:00,84.7,74.7,30.12,West,260,0.0,2.0,72,0.00,,,0.00,meteohub,2013-07-07 13:55:00,
2013-07-07 10:00:00,84.7,74.7,30.12,WNW,290,0.0,2.0,72,0.00,,,0.00,meteohub,2013-07-07 14:00:00,
2013-07-07 10:05:00,84.6,74.5,30.11,WNW,285,0.0,3.0,72,0.00,,,0.00,meteohub,2013-07-07 14:05:00,
2013-07-07 10:10:00,84.9,74.8,30.11,West,277,0.0,3.0,72,0.00,,,0.00,meteohub,2013-07-07 14:10:00,
2013-07-07 10:15:00,86.0,75.6,30.11,West,280,0.0,3.0,71,0.00,,,0.00,meteohub,2013-07-07 14:15:00,
2013-07-07 10:20:00,86.2,74.8,30.11,WNW,295,0.0,2.0,69,0.00,,,0.00,meteohub,2013-07-07 14:20:00,
2013-07-07 10:25:00,86.0,74.1,30.11,NNE,27,1.0,2.0,68,0.00,,,0.00,meteohub,2013-07-07 14:25:00,
2013-07-07 10:30:00,86.0,75.0,30.11,SSE,160,0.0,2.0,70,0.00,,,0.00,meteohub,2013-07-07 14:30:00,
2013-07-07 10:35:00,86.4,74.5,30.11,SE,141,0.0,3.0,68,0.00,,,0.00,meteohub,2013-07-07 14:35:00,
2013-07-07 10:40:00,87.1,75.2,30.11,WSW,245,2.0,3.0,68,0.00,,,0.00,meteohub,2013-07-07 14:40:00,
2013-07-07 10:45:00,87.1,75.7,30.11,SSW,205,0.0,4.0,69,0.00,,,0.00,meteohub,2013-07-07 14:45:00,
2013-07-07 10:50:00,86.9,75.6,30.11,NE,51,1.0,4.0,69,0.00,,,0.00,meteohub,2013-07-07 14:50:00,
2013-07-07 10:55:00,87.1,75.7,30.10,ENE,75,0.0,4.0,69,0.00,,,0.00,meteohub,2013-07-07 14:55:00,
2013-07-07 11:00:00,86.7,74.8,30.11,West,277,0.0,3.0,68,0.00,,,0.00,meteohub,2013-07-07 15:00:00,
2013-07-07 11:06:00,86.9,75.6,30.10,West,281,0.0,3.0,69,0.00,,,0.00,meteohub,2013-07-07 15:06:00,
2013-07-07 11:11:00,87.4,76.5,30.10,SSE,153,0.0,3.0,70,0.00,,,0.00,meteohub,2013-07-07 15:11:00,
2013-07-07 11:16:00,88.0,76.1,30.10,SW,219,0.0,0.0,68,0.00,,,0.00,meteohub,2013-07-07 15:16:00,
2013-07-07 11:21:00,88.0,76.1,30.10,NW,306,0.0,1.0,68,0.00,,,0.00,meteohub,2013-07-07 15:21:00,
2013-07-07 11:26:00,87.8,75.4,30.09,NE,53,1.0,3.0,67,0.00,,,0.00,meteohub,2013-07-07 15:26:00,
2013-07-07 11:31:00,88.2,76.3,30.09,West,262,0.0,3.0,68,0.00,,,0.00,meteohub,2013-07-07 15:31:00,
2013-07-07 11:36:00,88.2,75.4,30.09,SW,236,0.0,3.0,66,0.00,,,0.00,meteohub,2013-07-07 15:36:00,
2013-07-07 11:41:00,88.5,75.2,30.09,NE,43,0.0,1.0,65,0.00,,,0.00,meteohub,2013-07-07 15:41:00,
2013-07-07 11:46:00,88.9,76.5,30.09,WNW,288,0.0,1.0,67,0.00,,,0.00,meteohub,2013-07-07 15:46:00,
2013-07-07 11:51:00,88.5,75.7,30.09,WSW,250,0.0,1.0,66,0.00,,,0.00,meteohub,2013-07-07 15:51:00,
2013-07-07 11:56:00,88.7,75.9,30.09,SSW,205,0.0,1.0,66,0.00,,,0.00,meteohub,2013-07-07 15:56:00,
2013-07-07 12:01:00,89.2,75.9,30.09,SSE,167,0.0,2.0,65,0.00,,,0.00,meteohub,2013-07-07 16:01:00,
2013-07-07 12:06:00,90.0,76.6,30.09,SE,143,0.0,2.0,65,0.00,,,0.00,meteohub,2013-07-07 16:06:00,
2013-07-07 12:11:00,89.8,75.6,30.09,NE,36,0.0,2.0,63,0.00,,,0.00,meteohub,2013-07-07 16:11:00,
2013-07-07 12:17:00,89.8,76.5,30.09,WNW,283,1.0,3.0,65,0.00,,,0.00,meteohub,2013-07-07 16:17:00,
2013-07-07 12:22:00,89.8,76.5,30.09,WSW,242,0.0,3.0,65,0.00,,,0.00,meteohub,2013-07-07 16:22:00,
2013-07-07 12:27:00,90.0,77.0,30.09,WSW,243,0.0,3.0,66,0.00,,,0.00,meteohub,2013-07-07 16:27:00,
2013-07-07 12:32:00,90.0,76.1,30.09,West,280,2.0,3.0,64,0.00,,,0.00,meteohub,2013-07-07 16:32:00,
2013-07-07 12:37:00,89.4,76.6,30.09,WSW,252,0.0,3.0,66,0.00,,,0.00,meteohub,2013-07-07 16:37:00,
2013-07-07 12:42:00,89.4,76.6,30.09,WSW,244,0.0,3.0,66,0.00,,,0.00,meteohub,2013-07-07 16:42:00,
2013-07-07 12:47:00,89.4,76.6,30.09,West,274,1.0,4.0,66,0.00,,,0.00,meteohub,2013-07-07 16:47:00,
2013-07-07 12:52:00,89.2,76.8,30.09,NNW,341,1.0,4.0,67,0.00,,,0.00,meteohub,2013-07-07 16:52:00,
2013-07-07 12:57:00,89.8,76.8,30.09,West,259,1.0,4.0,66,0.00,,,0.00,meteohub,2013-07-07 16:57:00,
2013-07-07 13:02:00,89.8,77.4,30.09,WSW,249,0.0,2.0,67,0.00,,,0.00,meteohub,2013-07-07 17:02:00,
2013-07-07 13:07:00,89.8,75.9,30.09,WSW,245,0.0,2.0,64,0.00,,,0.00,meteohub,2013-07-07 17:07:00,
2013-07-07 13:12:00,90.0,76.6,30.09,SW,232,0.0,2.0,65,0.00,,,0.00,meteohub,2013-07-07 17:12:00,
2013-07-07 13:17:00,90.1,76.3,30.09,SW,231,1.0,2.0,64,0.00,,,0.00,meteohub,2013-07-07 17:17:00,
2013-07-07 13:22:00,90.1,76.8,30.08,SW,222,1.0,2.0,65,0.00,,,0.00,meteohub,2013-07-07 17:22:00,
2013-07-07 13:27:00,90.0,76.6,30.08,SW,232,1.0,2.0,65,0.00,,,0.00,meteohub,2013-07-07 17:27:00,
2013-07-07 13:32:00,90.0,76.1,30.08,WSW,248,1.0,3.0,64,0.00,,,0.00,meteohub,2013-07-07 17:32:00,
2013-07-07 13:37:00,90.0,77.0,30.08,WNW,288,2.0,3.0,66,0.00,,,0.00,meteohub,2013-07-07 17:37:00,
2013-07-07 13:42:00,89.8,76.5,30.08,WSW,242,0.0,3.0,65,0.00,,,0.00,meteohub,2013-07-07 17:42:00,
2013-07-07 13:47:00,89.4,77.5,30.08,West,273,0.0,3.0,68,0.00,,,0.00,meteohub,2013-07-07 17:47:00,
2013-07-07 13:52:00,90.0,77.9,30.08,WNW,288,0.0,3.0,68,0.00,,,0.00,meteohub,2013-07-07 17:52:00,
2013-07-07 13:57:00,90.0,76.6,30.08,SSW,210,0.0,4.0,65,0.00,,,0.00,meteohub,2013-07-07 17:57:00,
2013-07-07 14:02:00,89.8,76.8,30.08,WNW,290,0.0,4.0,66,0.00,,,0.00,meteohub,2013-07-07 18:02:00,
2013-07-07 14:07:00,90.0,77.0,30.07,WSW,256,1.0,3.0,66,0.00,,,0.00,meteohub,2013-07-07 18:07:00,
2013-07-07 14:12:00,90.5,77.5,30.07,WSW,239,0.0,3.0,66,0.00,,,0.00,meteohub,2013-07-07 18:12:00,
2013-07-07 14:17:00,90.7,76.3,30.07,SSW,208,2.0,4.0,63,0.00,,,0.00,meteohub,2013-07-07 18:17:00,
2013-07-07 14:22:00,90.5,75.7,30.07,West,278,2.0,5.0,62,0.00,,,0.00,meteohub,2013-07-07 18:22:00,
2013-07-07 14:27:00,90.7,76.8,30.06,WSW,245,1.0,5.0,64,0.00,,,0.00,meteohub,2013-07-07 18:27:00,
2013-07-07 14:32:00,90.9,76.1,30.06,NW,304,0.0,5.0,62,0.00,,,0.00,meteohub,2013-07-07 18:32:00,
2013-07-07 14:37:00,90.7,75.9,30.06,West,262,1.0,5.0,62,0.00,,,0.00,meteohub,2013-07-07 18:37:00,
2013-07-07 14:42:00,90.1,76.8,30.06,SW,225,1.0,4.0,65,0.00,,,0.00,meteohub,2013-07-07 18:42:00,
2013-07-07 14:47:00,90.1,75.9,30.05,WSW,238,2.0,4.0,63,0.00,,,0.00,meteohub,2013-07-07 18:47:00,
2013-07-07 14:52:00,90.1,75.9,30.05,SSW,203,1.0,4.0,63,0.00,,,0.00,meteohub,2013-07-07 18:52:00,
2013-07-07 14:58:00,89.6,74.8,30.05,WSW,255,1.0,4.0,62,0.00,,,0.00,meteohub,2013-07-07 18:58:00,
2013-07-07 15:03:00,89.4,75.2,30.05,SW,219,0.0,4.0,63,0.00,,,0.00,meteohub,2013-07-07 19:03:00,
2013-07-07 15:08:00,90.0,75.2,30.05,WSW,249,1.0,2.0,62,0.00,,,0.00,meteohub,2013-07-07 19:08:00,
2013-07-07 15:13:00,90.1,75.9,30.05,SW,219,1.0,3.0,63,0.00,,,0.00,meteohub,2013-07-07 19:13:00,
2013-07-07 15:18:00,90.3,75.6,30.04,West,275,1.0,5.0,62,0.00,,,0.00,meteohub,2013-07-07 19:18:00,
2013-07-07 15:23:00,90.7,76.3,30.04,WSW,245,1.0,5.0,63,0.00,,,0.00,meteohub,2013-07-07 19:23:00,
2013-07-07 15:28:00,90.9,76.5,30.04,WNW,297,1.0,4.0,63,0.00,,,0.00,meteohub,2013-07-07 19:28:00,
2013-07-07 15:33:00,90.1,75.9,30.04,SW,234,0.0,4.0,63,0.00,,,0.00,meteohub,2013-07-07 19:33:00,
2013-07-07 15:38:00,90.1,75.4,30.04,SSW,208,0.0,4.0,62,0.00,,,0.00,meteohub,2013-07-07 19:38:00,
2013-07-07 15:43:00,90.7,75.9,30.04,WNW,288,7.0,7.0,62,0.00,,,0.00,meteohub,2013-07-07 19:43:00,
2013-07-07 15:49:00,90.9,76.5,30.04,WNW,288,5.0,10.0,63,0.00,,,0.00,meteohub,2013-07-07 19:49:00,
2013-07-07 15:54:00,90.7,74.8,30.04,NW,307,2.0,10.0,60,0.00,,,0.00,meteohub,2013-07-07 19:54:00,
2013-07-07 15:59:00,90.7,75.4,30.04,NW,304,3.0,10.0,61,0.00,,,0.00,meteohub,2013-07-07 19:59:00,
2013-07-07 16:04:00,90.9,75.0,30.04,NW,309,2.0,5.0,60,0.00,,,0.00,meteohub,2013-07-07 20:04:00,
2013-07-07 16:09:00,90.9,74.5,30.03,WSW,257,1.0,6.0,59,0.00,,,0.00,meteohub,2013-07-07 20:09:00,
2013-07-07 16:14:00,90.9,74.5,30.03,WSW,249,1.0,6.0,59,0.00,,,0.00,meteohub,2013-07-07 20:14:00,
2013-07-07 16:19:00,90.9,75.0,30.03,WSW,257,1.0,6.0,60,0.00,,,0.00,meteohub,2013-07-07 20:19:00,
2013-07-07 16:24:00,90.9,75.0,30.03,WSW,249,0.0,6.0,60,0.00,,,0.00,meteohub,2013-07-07 20:24:00,
2013-07-07 16:29:00,90.9,74.5,30.03,WSW,249,1.0,4.0,59,0.00,,,0.00,meteohub,2013-07-07 20:29:00,
2013-07-07 16:34:00,90.3,74.1,30.03,WSW,243,1.0,5.0,59,0.00,,,0.00,meteohub,2013-07-07 20:34:00,
2013-07-07 16:39:00,90.0,73.8,30.03,West,269,1.0,6.0,59,0.00,,,0.00,meteohub,2013-07-07 20:39:00,
2013-07-07 16:44:00,90.1,74.3,30.03,West,273,1.0,6.0,60,0.00,,,0.00,meteohub,2013-07-07 20:44:00,
2013-07-07 16:49:00,90.0,74.1,30.03,WSW,249,0.0,5.0,60,0.00,,,0.00,meteohub,2013-07-07 20:49:00,
2013-07-07 16:54:00,90.1,75.4,30.03,WNW,294,3.0,5.0,62,0.00,,,0.00,meteohub,2013-07-07 20:54:00,
2013-07-07 16:59:00,89.8,74.5,30.03,West,267,2.0,5.0,61,0.00,,,0.00,meteohub,2013-07-07 20:59:00,
2013-07-07 17:05:00,89.2,74.5,30.03,WNW,288,1.0,7.0,62,0.00,,,0.00,meteohub,2013-07-07 21:05:00,
2013-07-07 17:10:00,89.1,75.2,30.02,WNW,294,1.0,7.0,64,0.00,,,0.00,meteohub,2013-07-07 21:10:00,
2013-07-07 17:15:00,89.4,75.6,30.02,West,266,1.0,7.0,64,0.00,,,0.00,meteohub,2013-07-07 21:15:00,
2013-07-07 17:20:00,90.0,76.1,30.02,WSW,256,1.0,4.0,64,0.00,,,0.00,meteohub,2013-07-07 21:20:00,
2013-07-07 17:25:00,90.0,75.7,30.03,NW,323,0.0,2.0,63,0.00,,,0.00,meteohub,2013-07-07 21:25:00,
2013-07-07 17:30:00,89.2,75.4,30.02,West,267,2.0,3.0,64,0.00,,,0.00,meteohub,2013-07-07 21:30:00,
2013-07-07 17:35:00,88.3,75.0,30.02,WSW,253,0.0,3.0,65,0.00,,,0.00,meteohub,2013-07-07 21:35:00,
2013-07-07 17:40:00,87.8,75.0,30.02,West,264,0.0,2.0,66,0.00,,,0.00,meteohub,2013-07-07 21:40:00,
2013-07-07 17:45:00,88.2,75.7,30.02,WNW,294,0.0,4.0,67,0.00,,,0.00,meteohub,2013-07-07 21:45:00,
2013-07-07 17:50:00,88.9,76.1,30.02,West,278,0.0,4.0,66,0.00,,,0.00,meteohub,2013-07-07 21:50:00,
2013-07-07 17:55:00,89.2,75.9,30.02,WNW,291,0.0,4.0,65,0.00,,,0.00,meteohub,2013-07-07 21:55:00,
2013-07-07 18:00:00,89.1,75.7,30.02,WSW,256,1.0,4.0,65,0.00,,,0.00,meteohub,2013-07-07 22:00:00,
2013-07-07 18:06:00,88.5,75.2,30.02,NW,314,1.0,6.0,65,0.00,,,0.00,meteohub,2013-07-07 22:06:00,
2013-07-07 18:11:00,88.9,76.1,30.02,WSW,248,0.0,6.0,66,0.00,,,0.00,meteohub,2013-07-07 22:11:00,
2013-07-07 18:16:00,89.1,76.3,30.03,West,271,1.0,6.0,66,0.00,,,0.00,meteohub,2013-07-07 22:16:00,
2013-07-07 18:21:00,89.2,75.9,30.02,WSW,245,0.0,5.0,65,0.00,,,0.00,meteohub,2013-07-07 22:21:00,
2013-07-07 18:26:00,89.2,75.9,30.02,WSW,242,0.0,3.0,65,0.00,,,0.00,meteohub,2013-07-07 22:26:00,
2013-07-07 18:31:00,89.1,76.3,30.03,WNW,295,0.0,2.0,66,0.00,,,0.00,meteohub,2013-07-07 22:31:00,
2013-07-07 18:36:00,88.3,75.9,30.03,WNW,290,0.0,3.0,67,0.00,,,0.00,meteohub,2013-07-07 22:36:00,
2013-07-07 18:41:00,87.6,75.7,30.03,West,262,0.0,4.0,68,0.00,,,0.00,meteohub,2013-07-07 22:41:00,
2013-07-07 18:46:00,87.1,75.2,30.03,NW,304,0.0,4.0,68,0.00,,,0.00,meteohub,2013-07-07 22:46:00,
2013-07-07 18:51:00,86.9,75.6,30.03,NW,308,1.0,4.0,69,0.00,,,0.00,meteohub,2013-07-07 22:51:00,
2013-07-07 18:56:00,86.7,75.7,30.02,West,260,1.0,4.0,70,0.00,,,0.00,meteohub,2013-07-07 22:56:00,
2013-07-07 19:01:00,86.5,75.6,30.03,West,266,0.0,3.0,70,0.00,,,0.00,meteohub,2013-07-07 23:01:00,
2013-07-07 19:06:00,85.8,75.4,30.03,WSW,257,1.0,3.0,71,0.00,,,0.00,meteohub,2013-07-07 23:06:00,
2013-07-07 19:11:00,85.3,75.2,30.03,WNW,288,0.0,3.0,72,0.00,,,0.00,meteohub,2013-07-07 23:11:00,
2013-07-07 19:17:00,84.9,74.8,30.03,WSW,246,0.0,3.0,72,0.00,,,0.00,meteohub,2013-07-07 23:17:00,
2013-07-07 19:22:00,84.6,74.5,30.03,SW,231,1.0,3.0,72,0.00,,,0.00,meteohub,2013-07-07 23:22:00,
2013-07-07 19:27:00,84.4,74.8,30.03,SW,219,0.0,2.0,73,0.00,,,0.00,meteohub,2013-07-07 23:27:00,
2013-07-07 19:32:00,84.0,74.5,30.04,West,271,0.0,2.0,73,0.00,,,0.00,meteohub,2013-07-07 23:32:00,
2013-07-07 19:37:00,83.8,74.7,30.04,West,273,0.0,2.0,74,0.00,,,0.00,meteohub,2013-07-07 23:37:00,
2013-07-07 19:42:00,83.8,74.3,30.05,WNW,291,0.0,2.0,73,0.00,,,0.00,meteohub,2013-07-07 23:42:00,
2013-07-07 19:47:00,83.1,72.0,30.07,WNW,282,2.0,3.0,69,0.00,,,0.00,meteohub,2013-07-07 23:47:00,
2013-07-07 19:52:00,80.1,71.1,30.08,SW,235,1.0,6.0,74,0.00,,,0.00,meteohub,2013-07-07 23:52:00,
2013-07-07 19:57:00,77.4,70.3,30.07,West,259,4.0,13.0,79,0.00,,,0.00,meteohub,2013-07-07 23:57:00,
2013-07-07 20:02:00,75.9,70.3,30.08,WNW,288,1.0,13.0,83,0.00,,,0.00,meteohub,2013-07-08 00:02:00,
2013-07-07 20:07:00,75.0,70.5,30.09,SW,231,0.0,9.0,86,0.00,,,0.00,meteohub,2013-07-08 00:07:00,
2013-07-07 20:12:00,74.1,70.3,30.10,WNW,288,0.0,5.0,88,0.00,,,0.00,meteohub,2013-07-08 00:12:00,
2013-07-07 20:17:00,73.6,70.5,30.07,NE,42,1.0,4.0,90,0.02,,,0.02,meteohub,2013-07-08 00:17:00,
2013-07-07 20:22:00,73.0,70.3,30.07,NE,39,0.0,3.0,91,0.03,,,0.03,meteohub,2013-07-08 00:22:00,
2013-07-07 20:27:00,72.9,70.2,30.07,SE,127,1.0,3.0,91,0.03,,,0.03,meteohub,2013-07-08 00:27:00,
2013-07-07 20:32:00,72.7,70.2,30.06,SSE,156,0.0,2.0,92,0.03,,,0.03,meteohub,2013-07-08 00:32:00,
2013-07-07 20:37:00,72.5,70.0,30.05,SE,146,0.0,2.0,92,0.03,,,0.03,meteohub,2013-07-08 00:37:00,
2013-07-07 20:42:00,72.3,70.2,30.05,SE,146,0.0,2.0,93,0.03,,,0.03,meteohub,2013-07-08 00:42:00,
2013-07-07 20:47:00,72.1,70.0,30.05,SE,146,0.0,1.0,93,0.03,,,0.03,meteohub,2013-07-08 00:47:00,
2013-07-07 20:52:00,72.1,70.3,30.06,South,186,0.0,1.0,94,0.03,,,0.03,meteohub,2013-07-08 00:52:00,
2013-07-07 20:57:00,72.1,70.3,30.06,West,281,1.0,1.0,94,0.03,,,0.03,meteohub,2013-07-08 00:57:00,
2013-07-07 21:02:00,72.1,70.3,30.06,NW,312,0.0,3.0,94,0.03,,,0.03,meteohub,2013-07-08 01:02:00,
2013-07-07 21:07:00,72.0,70.2,30.06,WNW,301,0.0,3.0,94,0.03,,,0.03,meteohub,2013-07-08 01:07:00,
2013-07-07 21:12:00,71.8,70.3,30.06,WNW,301,0.0,3.0,95,0.02,,,0.03,meteohub,2013-07-08 01:12:00,
2013-07-07 21:17:00,71.8,70.3,30.05,WNW,301,0.0,1.0,95,0.01,,,0.03,meteohub,2013-07-08 01:17:00,
2013-07-07 21:22:00,71.6,70.2,30.05,WNW,301,0.0,0.0,95,0.00,,,0.03,meteohub,2013-07-08 01:22:00,
2013-07-07 21:27:00,71.4,70.0,30.05,WNW,301,0.0,0.0,95,0.00,,,0.03,meteohub,2013-07-08 01:27:00,
2013-07-07 21:32:00,71.4,70.0,30.05,WNW,301,0.0,0.0,95,0.00,,,0.03,meteohub,2013-07-08 01:32:00,
2013-07-07 21:37:00,71.4,70.0,30.05,WNW,301,0.0,0.0,95,0.00,,,0.03,meteohub,2013-07-08 01:37:00,
2013-07-07 21:42:00,71.4,70.0,30.06,WNW,301,0.0,0.0,95,0.00,,,0.03,meteohub,2013-07-08 01:42:00,
2013-07-07 21:47:00,71.4,70.0,30.06,WNW,296,0.0,1.0,95,0.00,,,0.03,meteohub,2013-07-08 01:47:00,
2013-07-07 21:52:00,71.4,70.2,30.07,WNW,296,0.0,1.0,96,0.00,,,0.03,meteohub,2013-07-08 01:52:00,
2013-07-07 21:57:00,71.4,70.2,30.07,WNW,297,0.0,0.0,96,0.00,,,0.03,meteohub,2013-07-08 01:57:00,
2013-07-07 22:02:00,71.2,70.0,30.07,WNW,297,0.0,0.0,96,0.00,,,0.03,meteohub,2013-07-08 02:02:00,
2013-07-07 22:07:00,71.2,70.0,30.07,West,270,0.0,0.0,96,0.00,,,0.03,meteohub,2013-07-08 02:07:00,
2013-07-07 22:12:00,71.1,69.8,30.07,West,270,0.0,0.0,96,0.00,,,0.03,meteohub,2013-07-08 02:12:00,
2013-07-07 22:17:00,71.1,69.8,30.07,West,269,0.0,0.0,96,0.00,,,0.03,meteohub,2013-07-08 02:17:00,
2013-07-07 22:22:00,71.1,69.8,30.08,West,269,0.0,0.0,96,0.00,,,0.03,meteohub,2013-07-08 02:22:00,
2013-07-07 22:27:00,70.9,69.6,30.08,West,269,0.0,0.0,96,0.00,,,0.03,meteohub,2013-07-08 02:27:00,
2013-07-07 22:32:00,70.9,69.6,30.07,West,270,0.0,0.0,96,0.00,,,0.03,meteohub,2013-07-08 02:32:00,
2013-07-07 22:37:00,70.9,69.6,30.07,West,276,0.0,0.0,96,0.00,,,0.03,meteohub,2013-07-08 02:37:00,
2013-07-07 22:42:00,70.7,69.4,30.07,West,277,0.0,0.0,96,0.00,,,0.03,meteohub,2013-07-08 02:42:00,
2013-07-07 22:47:00,70.9,69.6,30.07,West,276,0.0,0.0,96,0.00,,,0.03,meteohub,2013-07-08 02:47:00,
2013-07-07 22:52:00,70.7,69.4,30.07,West,277,0.0,0.0,96,0.00,,,0.03,meteohub,2013-07-08 02:52:00,
2013-07-07 22:57:00,70.5,69.3,30.07,West,276,0.0,0.0,96,0.00,,,0.03,meteohub,2013-07-08 02:57:00,
2013-07-07 23:02:00,70.5,69.3,30.07,West,277,0.0,0.0,96,0.00,,,0.03,meteohub,2013-07-08 03:02:00,
2013-07-07 23:07:00,70.5,69.3,30.07,West,276,0.0,0.0,96,0.00,,,0.03,meteohub,2013-07-08 03:07:00,
2013-07-07 23:12:00,70.5,69.6,30.07,West,276,0.0,0.0,97,0.00,,,0.03,meteohub,2013-07-08 03:12:00,
2013-07-07 23:17:00,70.5,69.6,30.08,West,276,0.0,0.0,97,0.00,,,0.03,meteohub,2013-07-08 03:17:00,
2013-07-07 23:22:00,70.3,69.4,30.08,WNW,288,0.0,0.0,97,0.00,,,0.03,meteohub,2013-07-08 03:22:00,
2013-07-07 23:27:00,70.3,69.1,30.08,West,277,0.0,2.0,96,0.00,,,0.03,meteohub,2013-07-08 03:27:00,
2013-07-07 23:32:00,70.2,68.9,30.08,West,277,0.0,2.0,96,0.00,,,0.03,meteohub,2013-07-08 03:32:00,
2013-07-07 23:37:00,70.2,68.9,30.08,NW,304,0.0,2.0,96,0.00,,,0.03,meteohub,2013-07-08 03:37:00,
2013-07-07 23:42:00,70.2,68.9,30.08,WSW,256,0.0,1.0,96,0.00,,,0.03,meteohub,2013-07-08 03:42:00,
2013-07-07 23:47:00,70.2,68.9,30.08,West,276,0.0,2.0,96,0.00,,,0.03,meteohub,2013-07-08 03:47:00,
2013-07-07 23:52:00,70.2,68.9,30.08,West,277,0.0,2.0,96,0.00,,,0.03,meteohub,2013-07-08 03:52:00,
2013-07-07 23:57:00,70.2,68.9,30.08,West,276,0.0,2.0,96,0.00,,,0.03,meteohub,2013-07-08 03:57:00,